Temperature
12 12 12 12 12 12 12 12 12 12 12 12 12 12 12 12 12 12 12 11 12 11 11 11 11 11 11 11 11 11 11 11 11 11 11 11 11 11 11 10 10 10 10
12 12 12 12 12 12 12 12 12 12 12 11 11 11 11 11 11 11 11 11 11 11 11 11 11 11 11 11 11 11 11 11 11 11 11 11 11 11 10 10 10 10 10
12 12 12 12 12 11 11 11 12 11 11 11 11 11 11 11 11 11 11 11 11 11 11 11 11 11 10 10 10 10 10 10 10 10 10 10 10 10 10 10 10 10 9
11 11 11 11 11 11 11 11 11 11 11 11 11 11 11 11 11 11 11 11 11 11 11 10 10 10 10 10 10 10 10 10 10 10 10 10 10 10 10 9 9 9 9
11 11 11 11 11 11 11 11 11 11 11 10 10 10 10 10 10 10 10 10 10 10 10 10 10 10 10 10 10 10 10 10 10 10 10 9 9 9 9 9 9 9 9
11 11 11 11 11 11 11 10 10 10 10 10 10 10 10 10 10 10 10 10 10 10 10 10 10 10 10 10 10 9 9 9 9 9 9 9 9 9 9 9 9 8 8
10 10 11 11 11 10 10 10 10 10 10 10 9 9 9 9 9 9 9 9 9 9 9 9 9 9 9 9 9 9 9 9 9 9 9 9 9 9 8 8 8 8 8
10 10 10 10 10 10 10 10 10 9 9 9 9 9 8 8 9 9 9 9 9 9 9 9 9 9 9 9 9 9 9 9 9 8 8 8 8 8 8 8 8 8 8
9 9 9 10 10 10 10 9 9 9 9 9 9 9 9 8 8 8 8 8 8 8 9 9 9 8 8 8 8 8 8 8 8 8 8 8 8 8 8 8 7 7 7
9 9 9 9 9 9 9 9 9 9 9 9 8 8 9 9 8 8 8 8 8 8 8 8 8 8 8 8 8 8 8 8 8 8 8 7 7 7 7 7 7 7 7
9 9 9 9 9 9 9 9 9 8 8 8 8 8 8 8 8 8 7 8 8 8 8 8 8 8 8 7 7 7 7 7 7 7 7 7 7 7 7 7 7 7 7
8 8 8 8 8 8 8 8 8 8 8 8 8 8 8 8 8 8 8 7 7 7 7 7 7 7 7 7 7 7 7 7 7 7 7 7 7 7 7 7 6 6 6
8 8 8 8 8 8 8 8 8 8 8 8 8 7 7 7 7 7 7 7 7 7 7 7 7 7 7 7 6 6 6 6 6 6 6 6 6 6 6 6 6 6 6
8 8 7 7 7 7 7 7 7 7 7 7 7 7 7 7 7 7 7 7 6 6 6 6 6 6 6 6 6 6 6 6 6 6 6 6 6 6 6 6 5 5 5
7 7 7 7 7 7 7 7 7 7 7 7 7 7 7 7 7 6 6 6 6 5 5 6 6 6 6 6 5 5 5 5 5 5 5 5 5 5 5 5 5 5 5
7 7 7 6 7 6 6 6 6 6 6 6 6 6 6 6 6 6 6 6 5 5 5 5 5 5 5 5 5 5 5 5 5 5 5 5 5 5 5 4 4 4 4
6 6 6 6 6 6 6 6 6 6 6 6 6 6 6 6 6 6 6 5 5 5 5 5 5 5 5 5 5 5 4 4 4 4 4 4 4 4 4 4 4 4 4
6 6 6 6 6 6 6 6 6 6 6 6 6 5 5 5 5 5 5 5 5 5 4 4 5 5 4 4 4 4 4 4 4 4 4 4 4 4 3 3 3 3 3
6 6 6 6 6 6 6 6 5 5 5 5 5 5 5 5 5 5 5 4 4 4 4 4 4 4 4 4 3 3 4 4 4 3 3 3 3 3 3 3 3 3 3
5 5 5 5 5 5 5 5 5 5 5 5 5 5 5 4 4 4 4 4 4 4 3 3 3 3 3 3 3 3 3 3 3 3 3 3 3 2 2 2 2 2 2
5 5 5 5 5 5 5 5 5 4 4 4 4 4 4 4 4 4 4 4 3 3 3 3 3 3 3 3 3 2 2 2 3 2 2 2 2 2 2 2 2 2 2
4 4 4 4 4 4 4 4 4 4 4 4 4 4 3 4 3 3 3 3 3 3 3 3 3 2 3 2 2 2 2 2 2 2 1 2 2 2 2 2 2 2 2
4 4 4 4 4 4 3 3 3 3 3 3 3 3 3 3 3 3 3 3 3 2 2 2 2 2 2 2 1 1 1 1 1 1 1 1 1 1 1 1 1 1 1
3 3 3 3 3 3 3 3 3 3 3 3 3 3 3 3 3 3 2 2 2 2 2 2 2 2 1 1 1 1 0 0 0 1 0 0 1 1 1 1 1 1 0
3 3 3 3 3 3 2 2 2 2 2 2 2 2 2 2 2 2 2 2 2 2 1 1 1 1 1 1 0 -0 -0 -0 -0 0 -0 -1 -0 -0 0 0 0 -0 -0
3 2 2 2 2 2 2 2 2 2 2 2 2 2 2 2 2 1 1 1 1 1 1 1 1 1 0 0 -0 -0 -1 -1 -1 -1 -1 -1 -2 -2 -2 -1 -1 -1 -1
Wind_Speed
4 4 4 4 3 3 3 2 2 3 3 4 5 6 6 6 6 6 6 6 6 6 6 6 6 6 6 6 6 5 5 4 4 4 4 4 4 4 3 4 4 4 5
5 4 3 3 3 3 3 3 3 3 2 3 3 5 5 6 6 6 6 6 6 6 6 6 6 5 5 5 4 4 4 4 3 3 3 3 3 3 3 3 3 3 4
7 5 3 3 3 4 4 4 3 3 3 2 2 3 4 5 6 6 6 6 5 5 6 6 5 5 4 4 3 3 3 3 3 3 2 2 2 2 2 2 2 3 3
8 6 3 3 4 5 4 2 2 2 2 2 2 1 3 4 5 5 5 5 6 5 5 5 5 4 3 3 3 2 2 2 2 2 2 2 2 2 2 2 2 2 2
8 6 4 3 5 4 2 2 2 2 2 2 2 2 2 2 3 4 4 4 5 5 5 4 4 3 3 2 2 1 1 1 1 1 2 2 2 2 2 2 2 2 3
8 6 4 4 5 3 2 2 3 2 2 2 2 2 2 1 2 2 3 4 4 4 5 4 4 3 3 2 1 1 1 1 1 0 1 1 2 2 2 2 2 3 3
7 6 4 4 3 3 4 4 2 3 2 2 3 2 2 2 1 1 2 3 2 3 4 4 3 3 3 2 1 0 1 2 1 1 1 2 3 3 4 4 4 4 4
7 6 5 5 4 4 4 3 3 2 1 1 2 2 1 2 2 0 1 2 2 2 2 3 3 3 3 2 0 1 1 2 3 3 3 3 4 4 5 5 5 5 5
6 6 6 5 5 5 5 4 4 3 3 1 1 3 3 3 1 2 1 1 1 1 2 2 3 3 3 2 1 1 2 3 4 5 5 5 5 5 5 5 6 6 6
5 5 5 5 5 5 5 5 4 2 4 2 0 0 1 2 2 1 2 1 1 2 2 2 2 3 3 3 2 2 3 4 5 6 7 7 7 7 7 8 7 6 7
4 5 5 4 4 4 5 5 4 4 3 3 2 1 1 1 1 2 2 2 2 2 2 3 3 3 3 3 3 3 4 4 6 7 8 8 8 8 8 9 8 7 7
3 4 5 4 3 3 4 5 4 5 3 3 2 2 2 2 2 2 2 2 2 3 2 2 3 4 4 4 4 4 4 5 6 7 8 9 9 9 9 9 9 8 8
3 5 4 4 4 4 4 4 4 5 4 4 3 2 2 2 1 1 2 1 1 2 2 2 3 4 4 4 4 5 5 6 7 8 9 10 9 9 9 9 9 9 9
5 5 5 5 5 4 4 4 3 4 4 4 3 3 2 2 2 2 2 2 1 2 2 3 2 4 4 4 5 5 5 7 8 9 10 10 10 10 9 9 9 9 10
4 6 6 5 5 5 5 5 4 4 4 4 4 3 2 2 1 2 2 3 3 2 4 4 2 3 4 5 6 5 6 8 9 9 9 8 8 8 9 9 9 9 10
5 6 6 6 5 5 5 4 4 4 4 3 3 3 2 2 2 2 2 2 2 3 4 4 4 3 4 5 6 6 7 8 9 9 9 8 9 9 9 10 10 10 10
6 7 7 7 7 6 6 5 4 5 5 4 3 4 3 3 2 2 2 2 2 2 3 4 2 2 3 4 4 6 7 7 8 9 9 9 9 10 10 10 10 11 11
7 7 7 7 7 7 6 7 6 6 6 5 5 4 4 3 3 3 3 3 3 3 3 4 3 2 3 4 3 4 5 6 7 8 9 10 10 10 11 11 11 12 12
7 7 7 7 7 7 7 7 7 6 6 6 6 6 5 4 4 3 4 4 3 3 2 3 4 3 3 2 2 3 3 4 6 7 9 9 10 10 11 11 12 12 12
7 7 7 7 7 7 7 6 6 6 6 5 5 6 6 6 6 6 5 5 3 3 2 3 3 3 3 2 2 3 4 3 4 5 7 7 8 10 11 11 12 12 12
7 7 6 6 6 6 6 7 6 6 6 5 5 5 6 7 8 6 5 5 5 4 3 3 4 3 3 2 3 3 4 4 4 3 3 4 6 7 9 11 12 12 13
6 6 6 6 6 5 6 7 6 6 5 6 5 5 5 6 7 8 8 8 7 6 5 4 4 5 5 4 3 3 3 3 4 2 2 4 4 5 7 8 11 13 13
6 6 6 6 6 6 7 7 7 5 5 6 5 5 4 4 5 4 6 6 7 8 8 6 6 7 5 4 4 4 4 4 5 3 2 5 4 6 7 9 12 12 12
6 6 6 6 5 5 6 7 7 4 4 5 5 5 5 5 4 4 4 4 4 5 7 6 6 7 6 5 5 5 4 4 4 3 3 4 4 5 5 7 11 11 11
5 5 5 6 5 5 7 7 6 4 3 4 4 4 5 5 5 5 3 4 4 4 6 8 9 8 8 8 5 2 2 3 5 4 3 3 3 4 4 4 7 9 9
4 4 4 5 5 5 6 7 6 4 4 3 3 4 5 5 6 5 4 5 5 5 3 3 3 4 4 6 6 5 4 4 3 4 3 2 2 2 4 3 3 6 7
Wind_Direction
158 151 149 149 153 152 146 130 121 119 114 110 116 118 117 118 110 98 90 93 107 118 120 120 117 115 110 103 98 93 92 90 93 85 77 69 60 51 55 56 51 43 36
159 156 154 161 165 169 165 144 131 124 119 113 112 119 126 124 117 107 100 95 101 113 121 121 122 122 118 111 103 87 84 80 82 79 71 60 48 47 45 40 34 29 24
159 155 159 167 173 166 148 124 110 103 105 105 100 115 123 127 121 115 111 103 99 104 115 119 120 121 119 113 105 94 83 72 62 59 57 53 48 40 38 27 20 18 12
161 155 161 172 164 148 134 124 117 97 85 95 103 102 114 121 122 122 116 111 106 105 110 122 124 125 125 122 116 100 88 67 42 37 35 46 52 28 18 8 358 360 359
161 158 162 165 156 137 128 141 115 113 105 93 101 91 92 119 127 126 124 121 118 116 112 119 125 120 129 139 133 114 104 73 42 52 40 22 9 4 357 341 335 337 336
162 154 150 153 151 143 133 123 117 98 117 124 107 74 57 98 122 135 143 129 128 128 123 119 116 111 115 124 139 162 197 190 147 108 3 348 329 319 311 315 331 317 311
160 150 149 150 151 153 152 137 117 105 85 104 99 67 15 26 100 155 140 134 133 138 132 133 133 126 117 113 105 24 303 228 233 249 281 307 303 296 293 290 299 306 299
161 159 156 162 156 144 138 137 124 112 111 119 127 119 84 350 326 262 181 169 170 143 145 153 153 148 142 132 120 342 317 294 273 264 273 289 296 295 291 289 292 296 300
160 161 161 158 160 155 161 162 152 136 152 157 129 145 153 197 245 296 257 209 199 211 202 184 177 176 174 164 188 255 290 297 289 282 279 283 286 287 290 296 296 293 301
159 157 158 160 165 162 165 173 160 149 150 160 173 22 164 155 157 213 296 278 243 230 236 227 208 199 194 191 219 251 269 284 287 286 281 281 283 285 290 289 291 294 292
162 161 157 158 168 166 168 169 161 156 159 166 170 163 83 63 113 169 223 266 282 254 243 224 212 206 211 208 226 244 257 270 282 287 285 282 282 284 287 289 288 291 295
170 164 159 160 170 167 172 173 167 166 167 166 169 165 163 165 193 178 202 228 250 266 258 239 219 218 223 220 233 246 255 268 278 283 285 284 284 285 286 285 285 291 291
181 182 171 172 176 177 171 166 170 175 175 175 178 191 193 194 177 179 179 209 245 271 268 258 236 225 227 234 240 246 253 267 276 279 280 283 287 287 284 283 283 287 290
186 179 175 179 178 174 169 166 175 182 178 179 184 182 195 209 182 175 171 171 240 270 260 255 250 226 236 239 247 249 261 271 278 279 279 281 284 285 283 281 282 283 286
183 175 175 178 177 175 172 172 179 184 180 188 189 186 194 215 195 187 174 172 176 231 251 244 241 237 236 240 253 252 262 272 278 279 279 281 284 285 286 286 285 284 283
180 178 180 183 182 181 176 176 179 182 178 190 189 183 198 214 203 191 186 188 184 200 240 245 244 250 239 248 258 260 262 269 275 279 275 276 280 282 283 283 282 282 281
184 189 187 186 186 186 182 181 187 182 183 191 192 193 208 204 206 205 190 190 199 193 242 272 269 265 238 244 263 265 270 271 275 276 275 275 278 280 282 282 282 282 281
188 190 185 184 189 188 185 185 189 190 190 196 204 201 213 208 210 208 202 208 213 210 219 262 280 276 258 247 244 249 268 274 276 277 279 278 277 279 281 282 284 284 282
186 187 184 187 190 189 188 190 191 195 197 202 204 207 214 207 220 220 215 217 220 231 224 239 265 271 271 267 264 274 273 273 278 281 284 281 279 279 281 284 286 285 281
185 189 191 192 191 190 191 191 192 194 198 204 208 209 210 211 216 214 217 216 213 220 226 230 257 264 265 270 253 265 283 275 278 287 286 285 287 284 282 283 285 283 281
191 189 190 191 189 190 194 190 191 196 198 205 214 218 218 219 219 215 217 212 205 212 222 229 245 263 257 255 253 252 269 283 280 261 274 277 281 282 283 283 283 279 279
185 185 191 190 193 204 201 196 192 197 202 204 214 224 228 222 226 231 233 226 214 211 219 225 242 248 252 245 246 254 266 283 279 248 247 275 265 269 272 276 279 281 282
182 188 192 192 197 203 199 198 197 196 204 208 209 215 229 234 225 220 236 239 236 238 232 223 232 241 244 235 232 247 249 256 260 255 253 274 271 267 269 276 280 281 281
187 192 193 193 194 204 202 203 199 196 205 212 211 211 216 222 221 213 218 233 239 241 243 235 231 238 239 233 227 234 246 263 271 259 222 260 271 270 280 278 283 280 280
191 193 191 192 195 207 207 203 193 191 210 224 222 215 212 215 228 224 211 226 251 265 261 251 248 247 248 246 237 227 242 257 277 270 229 238 270 290 288 275 276 278 281
191 186 189 193 196 205 210 205 196 190 209 224 230 226 224 226 233 231 213 214 237 253 254 272 267 266 253 245 240 222 217 240 266 268 237 226 266 305 299 277 275 283 285
Height
1521 1522 1524 1525 1526 1527 1527 1528 1529 1530 1531 1532 1533 1534 1535 1536 1537 1538 1539 1539 1540 1540 1541 1541 1541 1541 1541 1541 1541 1542 1541 1541 1541 1541 1541 1541 1541 1540 1540 1540 1539 1539 1538
1519 1520 1522 1523 1524 1525 1526 1527 1527 1528 1530 1531 1532 1533 1534 1535 1536 1537 1538 1538 1539 1539 1539 1540 1540 1540 1540 1540 1540 1540 1540 1540 1540 1540 1540 1540 1539 1539 1539 1538 1538 1537 1537
1517 1518 1520 1521 1522 1523 1524 1525 1526 1527 1528 1529 1530 1531 1532 1533 1534 1535 1536 1537 1537 1538 1538 1538 1539 1539 1539 1539 1539 1539 1539 1539 1539 1539 1538 1538 1538 1537 1537 1537 1536 1536 1535
1515 1516 1517 1519 1520 1521 1522 1523 1524 1525 1526 1528 1529 1530 1531 1532 1533 1534 1535 1535 1536 1536 1537 1537 1537 1537 1537 1537 1537 1537 1537 1537 1537 1537 1537 1536 1536 1536 1535 1535 1535 1534 1533
1512 1514 1515 1516 1518 1519 1520 1521 1522 1523 1524 1526 1527 1528 1529 1530 1531 1532 1533 1534 1534 1535 1535 1535 1536 1536 1536 1536 1536 1536 1535 1535 1535 1535 1535 1535 1534 1534 1534 1533 1533 1532 1532
1509 1511 1512 1514 1515 1516 1517 1518 1520 1521 1522 1524 1525 1526 1527 1528 1530 1530 1531 1532 1532 1533 1533 1533 1534 1534 1534 1534 1534 1534 1534 1533 1533 1533 1533 1533 1533 1532 1532 1531 1531 1530 1529
1505 1507 1509 1510 1512 1513 1514 1516 1517 1518 1520 1521 1523 1524 1525 1526 1527 1528 1529 1529 1530 1531 1531 1532 1532 1532 1532 1532 1532 1532 1532 1532 1531 1531 1531 1531 1530 1530 1530 1529 1528 1528 1527
1502 1504 1505 1507 1509 1510 1511 1513 1514 1515 1517 1518 1520 1521 1523 1525 1525 1526 1526 1527 1527 1528 1529 1529 1530 1530 1529 1529 1529 1529 1529 1529 1529 1529 1529 1528 1528 1528 1527 1526 1526 1525 1525
1498 1500 1502 1504 1505 1507 1508 1510 1511 1512 1513 1515 1517 1519 1519 1519 1521 1523 1523 1524 1525 1525 1526 1526 1527 1527 1527 1527 1527 1527 1527 1527 1526 1526 1526 1526 1525 1525 1524 1524 1523 1522 1521
1495 1496 1498 1500 1502 1503 1505 1507 1508 1509 1510 1512 1514 1515 1517 1517 1518 1518 1520 1521 1522 1522 1523 1523 1524 1524 1524 1524 1524 1524 1524 1524 1524 1523 1523 1523 1522 1522 1521 1521 1520 1519 1518
1491 1493 1494 1497 1499 1500 1502 1504 1505 1506 1508 1509 1510 1511 1513 1514 1515 1515 1516 1517 1518 1519 1519 1520 1521 1521 1521 1521 1521 1521 1521 1520 1520 1520 1519 1519 1519 1518 1517 1517 1516 1515 1514
1487 1489 1491 1493 1495 1497 1499 1500 1502 1504 1505 1507 1508 1509 1510 1510 1511 1512 1513 1513 1514 1515 1516 1517 1517 1518 1518 1517 1517 1517 1517 1516 1516 1516 1516 1515 1514 1514 1513 1512 1511 1511 1509
1482 1485 1487 1489 1492 1494 1496 1498 1499 1501 1502 1504 1505 1506 1508 1508 1509 1510 1510 1510 1511 1511 1512 1513 1513 1514 1514 1514 1514 1514 1513 1513 1512 1512 1511 1511 1510 1509 1508 1508 1507 1506 1505
1479 1481 1483 1486 1488 1491 1493 1495 1496 1498 1499 1500 1502 1503 1504 1505 1506 1507 1508 1508 1507 1507 1508 1508 1509 1509 1510 1510 1510 1509 1509 1509 1508 1507 1507 1506 1505 1505 1504 1503 1502 1501 1500
1476 1478 1479 1482 1484 1487 1489 1491 1492 1494 1496 1497 1498 1500 1501 1502 1503 1504 1505 1505 1505 1503 1503 1503 1504 1505 1505 1505 1505 1505 1504 1504 1503 1503 1502 1501 1501 1500 1499 1498 1497 1496 1495
1472 1474 1476 1479 1481 1483 1486 1488 1489 1491 1492 1493 1495 1496 1497 1498 1499 1500 1501 1501 1501 1501 1500 1499 1500 1500 1501 1501 1501 1501 1500 1499 1499 1498 1497 1496 1496 1495 1494 1493 1492 1491 1491
1468 1471 1473 1475 1477 1479 1481 1483 1485 1487 1488 1490 1491 1493 1493 1494 1495 1496 1497 1497 1498 1498 1496 1495 1496 1496 1496 1496 1496 1496 1495 1494 1494 1493 1492 1491 1491 1490 1489 1488 1487 1486 1485
1465 1467 1469 1471 1473 1475 1477 1479 1481 1483 1484 1486 1487 1488 1489 1490 1491 1492 1493 1493 1493 1493 1493 1491 1491 1491 1491 1491 1491 1491 1490 1490 1489 1488 1487 1486 1486 1485 1484 1483 1482 1481 1480
1461 1463 1465 1467 1469 1471 1473 1475 1477 1478 1480 1481 1483 1484 1485 1486 1487 1488 1488 1488 1489 1489 1488 1488 1487 1487 1487 1487 1486 1485 1485 1484 1484 1483 1482 1481 1480 1480 1478 1477 1476 1475 1474
1456 1458 1461 1463 1465 1467 1469 1470 1472 1474 1475 1477 1478 1479 1480 1481 1482 1483 1483 1484 1484 1484 1484 1483 1482 1482 1482 1481 1481 1480 1479 1479 1478 1477 1476 1476 1475 1474 1473 1472 1471 1470 1469
1452 1454 1457 1458 1461 1463 1464 1466 1467 1469 1471 1472 1473 1475 1476 1477 1478 1479 1479 1479 1479 1479 1479 1478 1477 1477 1476 1476 1476 1475 1474 1473 1472 1472 1471 1471 1470 1468 1467 1466 1465 1464 1463
1448 1450 1452 1454 1456 1458 1460 1461 1463 1465 1466 1467 1468 1470 1471 1472 1473 1474 1474 1474 1475 1474 1474 1473 1472 1472 1471 1471 1471 1470 1469 1467 1466 1467 1465 1464 1464 1462 1461 1460 1459 1458 1457
1444 1446 1448 1450 1452 1454 1455 1457 1458 1460 1461 1462 1463 1465 1466 1467 1468 1468 1469 1469 1469 1469 1469 1469 1468 1467 1466 1466 1466 1465 1464 1463 1462 1461 1460 1457 1457 1456 1455 1454 1453 1452 1451
1440 1442 1444 1446 1448 1449 1451 1452 1454 1456 1457 1458 1459 1460 1461 1462 1463 1463 1463 1463 1463 1463 1463 1463 1463 1462 1462 1461 1461 1460 1459 1458 1457 1456 1455 1452 1450 1449 1448 1448 1447 1446 1445
1437 1438 1440 1442 1444 1445 1447 1448 1450 1451 1452 1453 1455 1456 1456 1457 1458 1458 1458 1458 1457 1458 1458 1458 1457 1457 1456 1456 1456 1455 1453 1452 1450 1449 1449 1447 1444 1443 1441 1441 1440 1440 1439
1433 1435 1436 1438 1440 1441 1443 1444 1446 1447 1448 1449 1450 1451 1452 1452 1453 1453 1453 1453 1452 1452 1452 1452 1452 1451 1451 1450 1450 1450 1449 1447 1445 1444 1443 1442 1439 1438 1435 1434 1434 1434 1432